Showing default

LCS 1, 1361

Orbit data source: Space-Track

LCS 1, 1361 is an American payload satellite in LEO that was launched on Thu, 06 May 1965 UTC via a TITAN IIIA launch vehicle from the Air Force Eastern Test Range (AFETR). Payload-class satellites include a variety of spacecraft equipped with specific instruments for various scientific and technological missions. These include communications satellites like Starlink; space stations such as the ISS; scientific satellites like the Hubble; Earth observation satellites from companies like Planet Labs, Umbra, and HawkEye 360; GPS; miniature CubeSats for education and research; and military/defense satellites.

Loading next visibility...
Identifier
1361, 1965-034C
Orbit
LEO
Country
Flag of USUS
Related business
Manufacturer
ROHR/MITLL
Mission
Operational spacecraft
Bus & Motor
LCS, Unknown motor
Mass
34 kg wet, 34 kg dry
Launch date (UTC)
1965-05-06 (61 years ago)
Launch vehicle
TITAN IIIA
Launch site
Air Force Eastern Test Range (AFETR)
Object type
Payload
Rocket body
Debris
Shape & HBR
Unknown
Radar Cross Section
Large (>1 m²)

Expand to show TLE details & history
Last TLE update: 22 hours ago

TLE from 22 hours ago
0 LCS 1
1 01361U 65034C   26175.24019411  .00000021  00000-0  16920-2 0  9995
2 01361  32.1355 160.2755 0012285 148.0110 212.1134  9.89310773210588
Epoch: 2026-06-24T05:45Z
TLE epoch observation values (Epoch: 2026-06-24T05:45:52.771Z)
Latitude
-0.00003°
Longitude
161.40533°
Altitude
2,796.366 km
Speed
6.59 km/s
True Right ascension
10h 41m 06s
True Declination
0° 00' 00"
Sunlit
Object was in daylight at epoch
Visualization orbit readout
Latitude
Unknown
Longitude
Unknown
Altitude
Unknown
Speed
Unknown
Apparent Right ascension
Unknown
Apparent Declination
Unknown
Sunlit
N/A
Visualization observer readout
Local Sidereal Time
14:53:33
Azimuth
Unknown
Elevation
Unknown
Doppler factor
Unknown
Orbital elements
Apogee altitude
2,801.902 km
Perigee altitude
2,779.374 km
Semi-major axis
9,168.775 km
Eccentricity
0.00123
Inclination
32.1355°
RAAN
160.2755°
Arg. of periapsis
148.011°
True anomaly
212.03866°
Mean anomaly
212.1134°
Eccentric anomaly
212.07602°
Mean motion
2.47216 °/min
Orbital period
145.62 mins
BSTAR
0.001692
Loading maneuver chart data...
Computing Atmospheric mass density...
Loading historical data...
Loading historical data...
Loading historical data...
Loading historical data...
Loading historical data...
Loading historical data...
Loading historical data...
Other satellites on launch #34 in the year 1965 (1965-05-06 UTC)

Documentation

Showing up to 5 results
|